Tracking 22438 objects as of 25-Feb-2021
HD Live streaming from Space Station
objects crossing your sky now

DELTA 1 DEB

Track DELTA 1 DEB now!
10-day predictions


NORAD ID: 21501
Int'l Code: 1975-052FW
Perigee: 1,052.5 km
Apogee: 1,915.7 km
Inclination: 99.8 °
Period: 115.5 minutes
Semi major axis: 7855 km
RCS: 0.0598 m2 (small)
Launch date: June 12, 1975
Source: United States (US)
Launch site: AIR FORCE WESTERN TEST RANGE (AFWTR)

Note: This is SATELLITE DEBRIS
aabbcc
Your satellite tracking list
Your tracking list is empty




NASA's NSSDC Master Catalog

Two Line Element Set (TLE):
1 21501U 75052FW  21055.56535671  .00000041  00000-0  30733-3 0  9993
2 21501  99.7775 270.6413 0549417 246.9738 132.8865 12.47022837355931
Source of the keplerian elements: AFSPC